Starlink 32258

operational
NORAD ID: 60939 Int'l Des: 2024-155 Owner: SPXS Country: US Constellation: starlink
LEOCIRCULAR

Starlink 32258について

説明を読み込み中...

リアルタイム位置

3D地球を読み込み中...

次回通過

高度履歴

Altitude vs Time

uPlot chart will show altitude changes over time

軌道要素

1 60939U 24155R 25305.49647213 -.00006895 00000-0 -22076-3 0 9995
2 60939 53.1610 5.1310 0001295 85.2700 274.8448 15.30215549 66660
Epoch: Nov 1, 2025 • Age: 28 hours

現在のステータス

高度 494.6 km
速度 7.62 km/s
衛星直下点 -53.31°S, 9.16°W
打ち上げ日 Aug 31, 2024
運用期間 1.1 years
タイプ internet

技術仕様

分類 Payload
質量 730.00 kg
乾燥質量 700.00 kg
総質量 730.00 kg
長さ 0.30 m
直径 4.10 m
スパン 29.00 m
形状 Box + pan
製造者 SPXS
バスタイプ Starlink V2M
フェーズステータス In Orbit
所有者/国 SPXS/US

大規模コンステレーション

Loading constellations...